South International Falls, MN

6:36 PM CST on January 24, 2017 (GMT -0600)
Falls International

Weather History for KINL - May, 2009

Change the Weather History Date:

Tuesday, May 12, 2009

  Actual Average Record
Temperature  
Mean Temperature 47 °F 51 °F  
Max Temperature 54 °F 64 °F 86 °F (1991)
Min Temperature 40 °F 37 °F 22 °F (1996)
Degree Days  
Heating Degree Days 18 15  
Month to date heating degree days 244 199  
Since 1 July heating degree days 10464 9837  
Cooling Degree Days 0 0  
Month to date cooling degree days 0  
Year to date cooling degree days 1  
Moisture  
Dew Point 45 °F    
Average Humidity 78    
Maximum Humidity 96    
Minimum Humidity 59    
Precipitation  
Precipitation 0.73 in 0.09 in 1.20 in (2014)
Month to date precipitation 1.05 0.98  
Year to date precipitation 7.91 4.65  
Snow  
Snow 0.00 in 0.00 in 0.30 in (1953)
Month to date snowfall T 0.2  
Since 1 July snowfall 125.0 71.0  
Snow Depth 0.00 in    
Sea Level Pressure  
Sea Level Pressure 29.77 in    
Wind  
Wind Speed 9 mph (SE)    
Max Wind Speed 20 mph    
Max Gust Speed 25 mph    
Visibility 8 miles    
Events Rain    
T = Trace of Precipitation, MM = Missing Value Source: NWS Daily Summary

Daily Weather History Graph

Daily Weather History Graph

Search for Another Location

Airport or City:

Trip Planner

Search our weather history database for the weather conditions in past years. The results will help you decide how hot, cold, wet, or windy it might be!

Date:

Astronomy

May. 12, 2009 Rise Set
Actual Time 5:36 AM CDT 8:44 PM CDT
Civil Twilight 4:59 AM CDT 9:21 PM CDT
Nautical Twilight 4:11 AM CDT 10:10 PM CDT
Astronomical Twilight 3:10 AM CDT 11:11 PM CDT
Moon No Moon Rise 7:34 AM CDT (5/12)
Length of Visible Light 16h 22m
Length of Day
15h 07m
Waning Gibbous, 88% of the Moon is Illuminated
May 12
Waning Gibbous
May 17
Last Quarter
May 24
New
May 30
First Quarter
Jun 7
Full

Hourly Weather History & Observations

Time (CDT) Temp. Windchill Dew Point Humidity Pressure Visibility Wind Dir Wind Speed Gust Speed Precip Events Conditions
12:55 AM 46.0 °F 44.8 °F 35.1 °F 66% 30.00 in 10.0 mi South 3.5 mph - N/A   Clear
1:55 AM 44.1 °F 41.5 °F 35.1 °F 71% 29.98 in 10.0 mi SSE 4.6 mph - N/A   Mostly Cloudy
2:55 AM 44.1 °F - 37.0 °F 76% 29.96 in 10.0 mi Calm Calm - N/A   Mostly Cloudy
3:55 AM 41.0 °F 37.1 °F 36.0 °F 82% 29.95 in 10.0 mi ESE 5.8 mph - N/A   Scattered Clouds
4:55 AM 41.0 °F 37.1 °F 36.0 °F 82% 29.93 in 10.0 mi ESE 5.8 mph - N/A   Clear
5:55 AM 44.1 °F 40.1 °F 37.9 °F 79% 29.91 in 10.0 mi SE 6.9 mph - N/A   Overcast
6:55 AM 46.9 °F - 39.0 °F 74% 29.90 in 10.0 mi SE 6.9 mph - N/A   Mostly Cloudy
7:55 AM 52.0 °F - 37.9 °F 59% 29.89 in 10.0 mi SSE 11.5 mph - N/A   Overcast
8:55 AM 46.9 °F - 43.0 °F 86% 29.89 in 10.0 mi SE 11.5 mph - 0.00 in Rain Light Rain
9:55 AM 48.9 °F - 44.1 °F 83% 29.85 in 10.0 mi SE 15.0 mph 23.0 mph 0.00 in Rain Light Rain
10:55 AM 51.1 °F - 45.0 °F 80% 29.85 in 10.0 mi SSE 10.4 mph - 0.00 in   Overcast
11:55 AM 51.1 °F - 48.0 °F 89% 29.83 in 9.0 mi SSE 9.2 mph - 0.00 in Rain Light Rain
12:03 PM 51.8 °F - 48.2 °F 88% 29.80 in 10.0 mi SSE 8.1 mph - 0.00 in   Overcast
12:55 PM 50.0 °F - 48.0 °F 93% 29.82 in 2.5 mi SSE 5.8 mph - 0.09 in Rain Rain
1:13 PM 50.0 °F - 48.2 °F 94% 29.78 in 4.0 mi SE 12.7 mph - 0.06 in Rain Light Rain
1:31 PM 50.0 °F - 48.2 °F 94% 29.78 in 2.5 mi SE 10.4 mph - 0.10 in Rain Rain
1:55 PM 48.9 °F - 46.9 °F 93% 29.81 in 2.5 mi SE 8.1 mph - 0.17 in Rain Light Rain
2:17 PM 48.2 °F - 46.4 °F 93% 29.76 in 5.0 mi SE 9.2 mph - 0.06 in Rain Light Rain
2:55 PM 48.9 °F - 46.0 °F 90% 29.78 in 10.0 mi East 11.5 mph - 0.07 in   Overcast
3:30 PM 48.2 °F - 46.4 °F 93% 29.73 in 10.0 mi East 10.4 mph - 0.01 in   Overcast
3:55 PM 48.9 °F - 46.0 °F 90% 29.75 in 10.0 mi East 11.5 mph - 0.01 in   Overcast
4:55 PM 48.0 °F - 46.0 °F 93% 29.73 in 10.0 mi ESE 8.1 mph - N/A   Overcast
5:25 PM 48.2 °F - 46.4 °F 93% 29.69 in 10.0 mi ESE 4.6 mph - 0.00 in   Overcast
5:43 PM 50.0 °F - 48.2 °F 94% 29.68 in 9.0 mi ESE 6.9 mph - 0.00 in   Overcast
5:55 PM 50.0 °F - 48.0 °F 93% 29.71 in 9.0 mi ESE 8.1 mph - 0.00 in   Overcast
6:50 PM 51.8 °F - 50.0 °F 94% 29.65 in 8.0 mi ESE 5.8 mph - N/A   Overcast
6:55 PM 52.0 °F - 50.0 °F 93% 29.68 in 8.0 mi SE 4.6 mph - 0.00 in Rain Light Rain
7:55 PM 53.1 °F - 50.0 °F 89% 29.67 in 2.5 mi SSE 10.4 mph - 0.09 in Rain Rain
8:08 PM 53.6 °F - 50.0 °F 88% 29.64 in 3.0 mi SE 10.4 mph - 0.04 in Rain Rain
8:17 PM 51.8 °F - 50.0 °F 94% 29.64 in 2.5 mi SE 11.5 mph - 0.06 in Rain Rain
8:36 PM 51.8 °F - 50.0 °F 94% 29.63 in 6.0 mi ESE 10.4 mph - 0.12 in Rain Light Rain
8:55 PM 52.0 °F - 50.0 °F 93% 29.67 in 4.0 mi ESE 10.4 mph - 0.16 in Rain Rain
9:55 PM 52.0 °F - 48.9 °F 89% 29.63 in 4.0 mi ESE 13.8 mph - 0.08 in Rain Rain
10:55 PM 51.1 °F - 48.0 °F 89% 29.57 in 10.0 mi ESE 15.0 mph - 0.06 in   Overcast
11:55 PM 51.1 °F - 48.0 °F 89% 29.55 in 10.0 mi ESE 12.7 mph 23.0 mph N/A   Overcast